Year,Month,Day,Hour,Minute,Value (Times are PST for temperature in C)
2016,06,29,00,01,21.40
2016,06,29,00,02,21.40
2016,06,29,00,03,21.60
2016,06,29,00,04,21.60
2016,06,29,00,06,21.60
2016,06,29,00,07,21.70
2016,06,29,00,09,21.80
2016,06,29,00,11,21.90
2016,06,29,00,12,21.90
2016,06,29,00,13,21.90
2016,06,29,00,14,22.00
2016,06,29,00,16,22.00
2016,06,29,00,17,22.00
2016,06,29,00,18,22.10
2016,06,29,00,19,22.10
2016,06,29,00,21,22.00
2016,06,29,00,22,22.00
2016,06,29,00,23,21.90
2016,06,29,00,24,21.90
2016,06,29,00,26,21.90
2016,06,29,00,27,21.90
2016,06,29,00,28,21.90
2016,06,29,00,29,21.90
2016,06,29,00,31,21.80
2016,06,29,00,32,21.80
2016,06,29,00,33,21.80
2016,06,29,00,34,21.90
2016,06,29,00,36,21.90
2016,06,29,00,37,21.90
2016,06,29,00,38,21.90
2016,06,29,00,39,21.90
2016,06,29,00,40,21.90
2016,06,29,00,41,21.90
2016,06,29,00,42,22.00
2016,06,29,00,43,22.00
2016,06,29,00,44,22.00
2016,06,29,00,45,21.90
2016,06,29,00,46,21.90
2016,06,29,00,47,21.80
2016,06,29,00,48,21.80
2016,06,29,00,49,21.80
2016,06,29,00,50,21.70
2016,06,29,00,51,21.60
2016,06,29,00,52,21.60
2016,06,29,00,53,21.60
2016,06,29,00,54,21.60
2016,06,29,00,55,21.60
2016,06,29,00,56,21.60
2016,06,29,00,57,21.60
2016,06,29,00,58,21.70
2016,06,29,00,59,21.70
2016,06,29,01,00,21.70
2016,06,29,01,01,21.70
2016,06,29,01,02,21.70
2016,06,29,01,03,21.80
2016,06,29,01,04,21.80
2016,06,29,01,05,21.80
2016,06,29,01,06,21.80
2016,06,29,01,07,21.90
2016,06,29,01,08,21.90
2016,06,29,01,09,21.90
2016,06,29,01,10,21.80
2016,06,29,01,11,21.80
2016,06,29,01,12,21.80
2016,06,29,01,13,21.80
2016,06,29,01,14,21.70
2016,06,29,01,15,21.60
2016,06,29,01,16,21.60
2016,06,29,01,17,21.60
2016,06,29,01,18,21.60
2016,06,29,01,19,21.40
2016,06,29,01,20,21.40
2016,06,29,01,21,21.30
2016,06,29,01,22,21.30
2016,06,29,01,23,21.30
2016,06,29,01,24,21.30
2016,06,29,01,25,21.30
2016,06,29,01,26,21.30
2016,06,29,01,27,21.30
2016,06,29,01,28,21.30
2016,06,29,01,29,21.30
2016,06,29,01,30,21.30
2016,06,29,01,31,21.40
2016,06,29,01,32,21.40
2016,06,29,01,33,21.40
2016,06,29,01,34,21.40
2016,06,29,01,35,21.40
2016,06,29,01,36,21.30
2016,06,29,01,37,21.30
2016,06,29,01,38,21.30
2016,06,29,01,39,21.30
2016,06,29,01,40,21.30
2016,06,29,01,41,21.30
2016,06,29,01,42,21.30
2016,06,29,01,43,21.30
2016,06,29,01,44,21.20
2016,06,29,01,45,21.20
2016,06,29,01,46,21.20
2016,06,29,01,47,21.10
2016,06,29,01,48,21.10
2016,06,29,01,49,21.10
2016,06,29,01,50,21.10
2016,06,29,01,51,21.00
2016,06,29,01,52,21.00
2016,06,29,01,53,21.00
2016,06,29,01,54,20.90
2016,06,29,01,55,20.90
2016,06,29,01,56,20.80
2016,06,29,01,57,20.80
2016,06,29,01,58,20.70
2016,06,29,01,59,20.70
2016,06,29,02,00,20.60
2016,06,29,02,01,20.60
2016,06,29,02,02,20.60
2016,06,29,02,03,20.60
2016,06,29,02,04,20.60
2016,06,29,02,06,20.60
2016,06,29,02,07,20.60
2016,06,29,02,08,20.60
2016,06,29,02,09,20.50
2016,06,29,02,11,20.50
2016,06,29,02,12,20.50
2016,06,29,02,13,20.50
2016,06,29,02,14,20.50
2016,06,29,02,16,20.40
2016,06,29,02,17,20.30
2016,06,29,02,18,20.30
2016,06,29,02,19,20.30
2016,06,29,02,21,20.30
2016,06,29,02,22,20.30
2016,06,29,02,23,20.20
2016,06,29,02,24,20.20
2016,06,29,02,26,20.20
2016,06,29,02,27,20.20
2016,06,29,02,28,20.10
2016,06,29,02,29,20.10
2016,06,29,02,31,19.90
2016,06,29,02,32,19.90
2016,06,29,02,33,19.90
2016,06,29,02,34,19.80
2016,06,29,02,36,19.70
2016,06,29,02,37,19.70
2016,06,29,02,38,19.70
2016,06,29,02,39,19.60
2016,06,29,02,41,19.60
2016,06,29,02,42,19.50
2016,06,29,02,43,19.50
2016,06,29,02,44,19.50
2016,06,29,02,46,19.50
2016,06,29,02,47,19.50
2016,06,29,02,48,19.50
2016,06,29,02,49,19.60
2016,06,29,02,51,19.60
2016,06,29,02,52,19.70
2016,06,29,02,53,19.70
2016,06,29,02,54,19.80
2016,06,29,02,56,19.80
2016,06,29,02,57,19.80
2016,06,29,02,58,19.80
2016,06,29,02,59,19.80
2016,06,29,03,01,19.80
2016,06,29,03,02,19.70
2016,06,29,03,03,19.70
2016,06,29,03,04,19.70
2016,06,29,03,06,19.70
2016,06,29,03,07,19.70
2016,06,29,03,08,19.80
2016,06,29,03,09,19.80
2016,06,29,03,11,19.80
2016,06,29,03,12,19.80
2016,06,29,03,13,19.80
2016,06,29,03,14,19.80
2016,06,29,03,16,19.80
2016,06,29,03,17,19.80
2016,06,29,03,18,19.80
2016,06,29,03,19,19.80
2016,06,29,03,21,19.70
2016,06,29,03,22,19.50
2016,06,29,03,23,19.40
2016,06,29,03,24,19.30
2016,06,29,03,25,19.20
2016,06,29,03,26,19.10
2016,06,29,03,27,19.10
2016,06,29,03,28,19.10
2016,06,29,03,29,19.10
2016,06,29,03,30,18.90
2016,06,29,03,31,18.90
2016,06,29,03,32,18.90
2016,06,29,03,33,18.90
2016,06,29,03,34,18.80
2016,06,29,03,43,18.40
2016,06,29,03,44,18.40
2016,06,29,03,46,18.30
2016,06,29,03,47,18.30
2016,06,29,03,48,18.30
2016,06,29,03,49,18.20
2016,06,29,03,51,18.20
2016,06,29,03,52,18.10
2016,06,29,03,53,18.10
2016,06,29,03,54,17.90
2016,06,29,03,55,17.90
2016,06,29,03,56,17.90
2016,06,29,03,57,17.90
2016,06,29,03,58,17.90
2016,06,29,03,59,17.90
2016,06,29,04,00,17.80
2016,06,29,04,01,17.80
2016,06,29,04,02,17.80
2016,06,29,04,43,16.20
2016,06,29,04,44,16.20
2016,06,29,04,46,16.10
2016,06,29,04,47,16.10
2016,06,29,04,48,16.10
2016,06,29,04,49,16.10
2016,06,29,04,51,15.90
2016,06,29,04,52,15.90
2016,06,29,04,53,15.90
2016,06,29,04,54,15.90
2016,06,29,04,56,15.80
2016,06,29,04,57,15.80
2016,06,29,04,58,15.80
2016,06,29,04,59,15.80
2016,06,29,05,01,15.80
2016,06,29,05,02,15.70
2016,06,29,05,03,15.70
2016,06,29,05,04,15.60
2016,06,29,05,06,15.60
2016,06,29,05,07,15.50
2016,06,29,05,08,15.50
2016,06,29,05,09,15.50
2016,06,29,05,10,15.40
2016,06,29,05,11,15.40
2016,06,29,05,12,15.40
2016,06,29,05,13,15.30
2016,06,29,05,14,15.30
2016,06,29,05,15,15.30
2016,06,29,05,16,15.30
2016,06,29,05,17,15.30
2016,06,29,05,18,15.30
2016,06,29,05,19,15.30
2016,06,29,05,20,15.20
2016,06,29,05,21,15.20
2016,06,29,05,22,15.20
2016,06,29,05,23,15.20
2016,06,29,05,24,15.20
2016,06,29,05,25,15.10
2016,06,29,05,26,15.10
2016,06,29,05,27,15.10
2016,06,29,05,28,15.10
2016,06,29,05,29,15.10
2016,06,29,05,30,15.00
2016,06,29,05,31,15.00
2016,06,29,05,32,15.00
2016,06,29,05,33,15.00
2016,06,29,05,34,15.00
2016,06,29,05,35,15.00
2016,06,29,05,36,14.90
2016,06,29,05,37,14.90
2016,06,29,05,38,14.90
2016,06,29,05,39,14.90
2016,06,29,05,40,14.90
2016,06,29,05,41,14.90
2016,06,29,05,42,14.80
2016,06,29,05,43,14.80
2016,06,29,05,44,14.80
2016,06,29,05,45,14.80
2016,06,29,05,46,14.80
2016,06,29,05,47,14.80
2016,06,29,05,48,14.80
2016,06,29,05,49,14.80
2016,06,29,05,50,14.80
2016,06,29,05,51,14.80
2016,06,29,05,52,14.70
2016,06,29,05,53,14.70
2016,06,29,05,54,14.70
2016,06,29,05,55,14.70
2016,06,29,05,56,14.70
2016,06,29,05,57,14.60
2016,06,29,05,58,14.60
2016,06,29,05,59,14.60
2016,06,29,06,00,14.60
2016,06,29,06,01,14.60
2016,06,29,06,02,14.60
2016,06,29,06,03,14.50
2016,06,29,06,04,14.50
2016,06,29,06,05,14.50
2016,06,29,06,06,14.50
2016,06,29,06,07,14.50
2016,06,29,06,08,14.50
2016,06,29,06,09,14.50
2016,06,29,06,10,14.50
2016,06,29,06,11,14.50
2016,06,29,06,12,14.50
2016,06,29,06,13,14.50
2016,06,29,06,14,14.40
2016,06,29,06,15,14.40
2016,06,29,06,16,14.40
2016,06,29,06,17,14.40
2016,06,29,06,18,14.40
2016,06,29,06,19,14.40
2016,06,29,06,20,14.40
2016,06,29,06,21,14.30
2016,06,29,06,22,14.30
2016,06,29,06,24,14.30
2016,06,29,06,26,14.30
2016,06,29,06,27,14.30
2016,06,29,06,28,14.30
2016,06,29,06,29,14.30
2016,06,29,06,31,14.30
2016,06,29,06,32,14.30
2016,06,29,06,33,14.20
2016,06,29,06,34,14.20
2016,06,29,06,36,14.20
2016,06,29,06,37,14.20
2016,06,29,06,38,14.20
2016,06,29,06,39,14.20
2016,06,29,06,41,14.20
2016,06,29,06,42,14.20
2016,06,29,06,43,14.20
2016,06,29,06,44,14.20
2016,06,29,06,46,14.20
2016,06,29,06,47,14.20
2016,06,29,06,48,14.20
2016,06,29,06,49,14.20
2016,06,29,06,51,14.20
2016,06,29,06,52,14.20
2016,06,29,06,53,14.20
2016,06,29,06,54,14.20
2016,06,29,06,56,14.20
2016,06,29,06,57,14.20
2016,06,29,06,58,14.20
2016,06,29,06,59,14.20
2016,06,29,07,01,14.20
2016,06,29,07,02,14.20
2016,06,29,07,03,14.20
2016,06,29,07,04,14.20
2016,06,29,07,06,14.20
2016,06,29,07,07,14.20
2016,06,29,07,08,14.20
2016,06,29,07,09,14.20
2016,06,29,07,11,14.20
2016,06,29,07,12,14.20
2016,06,29,07,13,14.20
2016,06,29,07,14,14.20
2016,06,29,07,16,14.20
2016,06,29,07,17,14.20
2016,06,29,07,18,14.10
2016,06,29,07,19,14.10
2016,06,29,07,21,14.10
2016,06,29,07,22,14.10
2016,06,29,07,23,14.10
2016,06,29,07,24,14.10
2016,06,29,07,26,14.10
2016,06,29,07,27,14.10
2016,06,29,07,28,14.10
2016,06,29,07,29,14.10
2016,06,29,07,31,14.10
2016,06,29,07,32,14.10
2016,06,29,07,33,14.00
2016,06,29,07,34,14.00
2016,06,29,07,36,14.00
2016,06,29,07,37,14.00
2016,06,29,07,38,14.00
2016,06,29,07,39,14.00
2016,06,29,07,40,14.00
2016,06,29,07,41,14.00
2016,06,29,07,42,13.90
2016,06,29,07,43,13.90
2016,06,29,07,44,13.90
2016,06,29,07,45,13.90
2016,06,29,07,46,13.90
2016,06,29,07,47,13.90
2016,06,29,07,48,13.90
2016,06,29,07,49,13.90
2016,06,29,07,50,13.90
2016,06,29,07,51,13.90
2016,06,29,07,52,13.90
2016,06,29,07,53,13.90
2016,06,29,07,54,13.90
2016,06,29,07,55,13.90
2016,06,29,07,56,13.90
2016,06,29,07,57,13.90
2016,06,29,07,58,13.80
2016,06,29,07,59,13.80
2016,06,29,08,00,13.80
2016,06,29,08,01,13.80
2016,06,29,08,02,13.80
2016,06,29,08,03,13.80
2016,06,29,08,04,13.80
2016,06,29,08,05,13.70
2016,06,29,08,06,13.70
2016,06,29,08,07,13.70
2016,06,29,08,08,13.70
2016,06,29,08,09,13.70
2016,06,29,08,10,13.70
2016,06,29,08,11,13.70
2016,06,29,08,12,13.70
2016,06,29,08,13,13.70
2016,06,29,08,14,13.70
2016,06,29,08,15,13.70
2016,06,29,08,16,13.70
2016,06,29,08,17,13.70
2016,06,29,08,18,13.70
2016,06,29,08,19,13.70
2016,06,29,08,20,13.70
2016,06,29,08,21,13.70
2016,06,29,08,22,13.70
2016,06,29,08,23,13.70
2016,06,29,08,24,13.70
2016,06,29,08,25,13.70
2016,06,29,08,26,13.60
2016,06,29,08,27,13.60
2016,06,29,08,28,13.60
2016,06,29,08,29,13.60
2016,06,29,08,30,13.60
2016,06,29,08,31,13.60
2016,06,29,08,32,13.60
2016,06,29,08,33,13.60
2016,06,29,08,34,13.60
2016,06,29,08,35,13.60
2016,06,29,08,36,13.60
2016,06,29,08,37,13.60
2016,06,29,08,38,13.60
2016,06,29,08,39,13.60
2016,06,29,08,40,13.60
2016,06,29,08,41,13.50
2016,06,29,08,42,13.50
2016,06,29,08,43,13.50
2016,06,29,08,44,13.50
2016,06,29,08,45,13.50
2016,06,29,08,46,13.50
2016,06,29,08,47,13.50
2016,06,29,08,48,13.50
2016,06,29,08,49,13.50
2016,06,29,08,50,13.50
2016,06,29,08,51,13.50
2016,06,29,08,52,13.50
2016,06,29,08,53,13.50
2016,06,29,08,54,13.50
2016,06,29,08,55,13.50
2016,06,29,08,56,13.50
2016,06,29,08,57,13.50
2016,06,29,08,58,13.50
2016,06,29,08,59,13.50
2016,06,29,09,00,13.50
2016,06,29,09,01,13.50
2016,06,29,09,02,13.50
2016,06,29,09,03,13.40
2016,06,29,09,04,13.50
2016,06,29,09,05,13.50
2016,06,29,09,06,13.50
2016,06,29,09,08,13.50
2016,06,29,09,09,13.50
2016,06,29,09,11,13.50
2016,06,29,09,12,13.50
2016,06,29,09,13,13.50
2016,06,29,09,14,13.50
2016,06,29,09,16,13.50
2016,06,29,09,17,13.50
2016,06,29,09,18,13.50
2016,06,29,09,19,13.50
2016,06,29,09,21,13.50
2016,06,29,09,22,13.50
2016,06,29,09,23,13.50
2016,06,29,09,24,13.50
2016,06,29,09,26,13.50
2016,06,29,09,27,13.50
2016,06,29,09,28,13.40
2016,06,29,09,29,13.40
2016,06,29,09,31,13.40
2016,06,29,09,32,13.40
2016,06,29,09,33,13.40
2016,06,29,09,34,13.40
2016,06,29,09,36,13.40
2016,06,29,09,37,13.40
2016,06,29,09,38,13.40
2016,06,29,09,39,13.40
2016,06,29,09,41,13.40
2016,06,29,09,42,13.40
2016,06,29,09,43,13.30
2016,06,29,09,44,13.30
2016,06,29,09,46,13.30
2016,06,29,09,47,13.30
2016,06,29,09,48,13.30
2016,06,29,09,49,13.30
2016,06,29,09,51,13.30
2016,06,29,09,52,13.30
2016,06,29,09,53,13.30
2016,06,29,09,54,13.30
2016,06,29,09,56,13.30
2016,06,29,09,57,13.30
2016,06,29,09,58,13.30
2016,06,29,09,59,13.30
2016,06,29,10,01,13.30
2016,06,29,10,02,13.30
2016,06,29,10,03,13.30
2016,06,29,10,04,13.30
2016,06,29,10,06,13.30
2016,06,29,10,07,13.30
2016,06,29,10,08,13.30
2016,06,29,10,09,13.30
2016,06,29,10,11,13.30
2016,06,29,10,12,13.30
2016,06,29,10,13,13.30
2016,06,29,10,14,13.30
2016,06,29,10,16,13.30
2016,06,29,10,17,13.30
2016,06,29,10,18,13.30
2016,06,29,10,19,13.20
2016,06,29,10,21,13.20
2016,06,29,10,22,13.20
2016,06,29,10,23,13.20
2016,06,29,10,24,13.20
2016,06,29,10,25,13.20
2016,06,29,10,26,13.20
2016,06,29,10,27,13.20
2016,06,29,10,28,13.20
2016,06,29,10,29,13.20
2016,06,29,10,30,13.20
2016,06,29,10,31,13.20
2016,06,29,10,32,13.20
2016,06,29,10,33,13.20
2016,06,29,10,34,13.20
2016,06,29,10,36,13.20
2016,06,29,10,37,13.20
2016,06,29,10,38,13.20
2016,06,29,10,39,13.20
2016,06,29,10,40,13.20
2016,06,29,10,41,13.20
2016,06,29,10,42,13.20
2016,06,29,10,43,13.20
2016,06,29,10,44,13.20
2016,06,29,10,45,13.20
2016,06,29,10,46,13.20
2016,06,29,10,47,13.20
2016,06,29,10,48,13.20
2016,06,29,10,49,13.20
2016,06,29,10,50,13.20
2016,06,29,10,51,13.20
2016,06,29,10,52,13.20
2016,06,29,10,53,13.20
2016,06,29,10,54,13.20
2016,06,29,10,55,13.20
2016,06,29,10,56,13.20
2016,06,29,10,57,13.20
2016,06,29,10,58,13.20
2016,06,29,10,59,13.20
2016,06,29,11,00,13.20
2016,06,29,11,01,13.20
2016,06,29,11,02,13.20
2016,06,29,11,03,13.10
2016,06,29,11,04,13.10
2016,06,29,11,05,13.10
2016,06,29,11,06,13.10
2016,06,29,11,07,13.10
2016,06,29,11,08,13.10
2016,06,29,11,09,13.10
2016,06,29,11,10,13.10
2016,06,29,11,11,13.10
2016,06,29,11,12,13.10
2016,06,29,11,13,13.10
2016,06,29,11,14,13.10
2016,06,29,11,15,13.10
2016,06,29,11,16,13.10
2016,06,29,11,17,13.10
2016,06,29,11,18,13.10
2016,06,29,11,19,13.10
2016,06,29,11,20,13.10
2016,06,29,11,21,13.10
2016,06,29,11,22,13.10
2016,06,29,11,23,13.10
2016,06,29,11,24,13.10
2016,06,29,11,25,13.10
2016,06,29,11,26,13.10
2016,06,29,11,27,13.10
2016,06,29,11,28,13.00
2016,06,29,11,29,13.00
2016,06,29,11,30,13.00
2016,06,29,11,31,13.00
2016,06,29,11,32,13.00
2016,06,29,11,33,13.00
2016,06,29,11,34,13.00
2016,06,29,11,35,13.00
2016,06,29,11,36,13.10
2016,06,29,11,37,13.10
2016,06,29,11,38,13.10
2016,06,29,11,39,13.10
2016,06,29,11,40,13.10
2016,06,29,11,41,13.10
2016,06,29,11,42,13.10
2016,06,29,11,43,13.10
2016,06,29,11,44,13.10
2016,06,29,11,45,13.10
2016,06,29,11,46,13.10
2016,06,29,11,47,13.10
2016,06,29,11,48,13.10
2016,06,29,11,49,13.10
2016,06,29,11,50,13.10
2016,06,29,11,52,13.10
2016,06,29,11,53,13.10
2016,06,29,11,54,13.10
2016,06,29,11,56,13.20
2016,06,29,11,57,13.20
2016,06,29,11,58,13.20
2016,06,29,11,59,13.20
2016,06,29,12,01,13.20
2016,06,29,12,02,13.20
2016,06,29,12,03,13.20
2016,06,29,12,04,13.20
2016,06,29,12,06,13.30
2016,06,29,12,07,13.30
2016,06,29,12,08,13.30
2016,06,29,12,09,13.30
2016,06,29,12,11,13.30
2016,06,29,12,12,13.30
2016,06,29,12,13,13.30
2016,06,29,12,14,13.30
2016,06,29,12,16,13.30
2016,06,29,12,17,13.30
2016,06,29,12,18,13.30
2016,06,29,12,19,13.30
2016,06,29,12,21,13.30
2016,06,29,12,22,13.30
2016,06,29,12,23,13.30
2016,06,29,12,24,13.30
2016,06,29,12,26,13.30
2016,06,29,12,27,13.30
2016,06,29,12,28,13.30
2016,06,29,12,29,13.30
2016,06,29,12,31,13.30
2016,06,29,12,32,13.30
2016,06,29,12,33,13.30
2016,06,29,12,34,13.30
2016,06,29,12,36,13.30
2016,06,29,12,37,13.30
2016,06,29,12,38,13.30
2016,06,29,12,39,13.30
2016,06,29,12,41,13.30
2016,06,29,12,42,13.30
2016,06,29,12,43,13.30
2016,06,29,12,44,13.30
2016,06,29,12,46,13.30
2016,06,29,12,47,13.30
2016,06,29,12,48,13.20
2016,06,29,12,49,13.20
2016,06,29,12,51,13.20
2016,06,29,12,52,13.20
2016,06,29,12,53,13.20
2016,06,29,12,54,13.20
2016,06,29,12,56,13.20
2016,06,29,12,57,13.20
2016,06,29,12,58,13.20
2016,06,29,12,59,13.20
2016,06,29,13,01,13.20
2016,06,29,13,02,13.20
2016,06,29,13,03,13.20
2016,06,29,13,04,13.10
2016,06,29,13,06,13.10
2016,06,29,13,07,13.10
2016,06,29,13,08,13.10
2016,06,29,13,09,13.10
2016,06,29,13,10,13.10
2016,06,29,13,11,13.10
2016,06,29,13,12,13.10
2016,06,29,13,13,13.10
2016,06,29,13,14,13.10
2016,06,29,13,15,13.10
2016,06,29,13,16,13.10
2016,06,29,13,17,13.10
2016,06,29,13,18,13.10
2016,06,29,13,19,13.10
2016,06,29,13,20,13.10
2016,06,29,13,21,13.10
2016,06,29,13,22,13.10
2016,06,29,13,23,13.10
2016,06,29,13,24,13.10
2016,06,29,13,25,13.10
2016,06,29,13,26,13.10
2016,06,29,13,27,13.10
2016,06,29,13,28,13.00
2016,06,29,13,29,13.00
2016,06,29,13,30,13.00
2016,06,29,13,31,13.00
2016,06,29,13,32,13.00
2016,06,29,13,33,13.00
2016,06,29,13,34,13.00
2016,06,29,13,35,13.00
2016,06,29,13,36,13.00
2016,06,29,13,37,13.00
2016,06,29,13,38,13.10
2016,06,29,13,39,13.10
2016,06,29,13,40,13.10
2016,06,29,13,41,13.10
2016,06,29,13,42,13.10
2016,06,29,13,43,13.10
2016,06,29,13,44,13.10
2016,06,29,13,45,13.10
2016,06,29,13,46,13.10
2016,06,29,13,47,13.10
2016,06,29,13,48,13.10
2016,06,29,13,49,13.10
2016,06,29,13,50,13.10
2016,06,29,13,51,13.10
2016,06,29,13,52,13.20
2016,06,29,13,53,13.20
2016,06,29,13,54,13.20
2016,06,29,13,55,13.20
2016,06,29,13,56,13.20
2016,06,29,13,57,13.20
2016,06,29,13,58,13.20
2016,06,29,13,59,13.20
2016,06,29,14,00,13.20
2016,06,29,14,01,13.20
2016,06,29,14,02,13.20
2016,06,29,14,03,13.20
2016,06,29,14,04,13.30
2016,06,29,14,05,13.30
2016,06,29,14,06,13.30
2016,06,29,14,07,13.30
2016,06,29,14,08,13.30
2016,06,29,14,09,13.30
2016,06,29,14,10,13.30
2016,06,29,14,11,13.30
2016,06,29,14,12,13.30
2016,06,29,14,13,13.30
2016,06,29,14,14,13.30
2016,06,29,14,15,13.30
2016,06,29,14,16,13.30
2016,06,29,14,17,13.30
2016,06,29,14,18,13.30
2016,06,29,14,19,13.30
2016,06,29,14,20,13.30
2016,06,29,14,21,13.30
2016,06,29,14,22,13.30
2016,06,29,14,23,13.30
2016,06,29,14,24,13.30
2016,06,29,14,25,13.30
2016,06,29,14,26,13.30
2016,06,29,14,27,13.30
2016,06,29,14,28,13.40
2016,06,29,14,29,13.40
2016,06,29,14,31,13.40
2016,06,29,14,32,13.40
2016,06,29,14,33,13.40
2016,06,29,14,34,13.40
2016,06,29,14,36,13.50
2016,06,29,14,37,13.50
2016,06,29,14,38,13.50
2016,06,29,14,39,13.50
2016,06,29,14,41,13.50
2016,06,29,14,42,13.50
2016,06,29,14,43,13.50
2016,06,29,14,44,13.50
2016,06,29,14,46,13.50
2016,06,29,14,47,13.50
2016,06,29,14,48,13.50
2016,06,29,14,49,13.50
2016,06,29,14,51,13.60
2016,06,29,14,52,13.60
2016,06,29,14,53,13.60
2016,06,29,14,54,13.60
2016,06,29,15,42,14.40
2016,06,29,15,43,14.40
2016,06,29,15,44,14.50
2016,06,29,15,46,14.50
2016,06,29,15,47,14.60
2016,06,29,15,48,14.60
2016,06,29,15,49,14.60
2016,06,29,15,51,14.70
2016,06,29,15,52,14.70
2016,06,29,15,53,14.70
2016,06,29,15,54,14.80
2016,06,29,15,55,14.80
2016,06,29,15,56,14.80
2016,06,29,15,57,14.80
2016,06,29,15,58,14.80
2016,06,29,15,59,14.80
2016,06,29,16,00,14.80
2016,06,29,16,01,14.90
2016,06,29,16,02,14.90
2016,06,29,16,03,14.90
2016,06,29,16,04,15.00
2016,06,29,16,06,15.00
2016,06,29,16,07,15.10
2016,06,29,16,08,15.10
2016,06,29,16,09,15.10
2016,06,29,16,10,15.10
2016,06,29,16,11,15.20
2016,06,29,16,42,16.40
2016,06,29,16,43,16.40
2016,06,29,16,44,16.40
2016,06,29,16,46,16.70
2016,06,29,16,47,16.70
2016,06,29,16,48,16.70
2016,06,29,16,49,16.80
2016,06,29,16,51,16.80
2016,06,29,16,52,16.90
2016,06,29,16,53,16.90
2016,06,29,16,54,16.90
2016,06,29,16,55,16.90
2016,06,29,16,56,16.90
2016,06,29,16,57,17.00
2016,06,29,16,58,17.00
2016,06,29,16,59,17.10
2016,06,29,17,00,17.10
2016,06,29,17,01,17.20
2016,06,29,17,02,17.20
2016,06,29,17,03,17.30
2016,06,29,17,04,17.30
2016,06,29,17,06,17.30
2016,06,29,17,07,17.30
2016,06,29,17,08,17.40
2016,06,29,17,09,17.40
2016,06,29,17,10,17.50
2016,06,29,17,11,17.50
2016,06,29,17,12,17.60
2016,06,29,17,13,17.60
2016,06,29,17,14,17.60
2016,06,29,17,15,17.60
2016,06,29,17,16,17.60
2016,06,29,17,17,17.70
2016,06,29,17,18,17.70
2016,06,29,17,19,17.70
2016,06,29,17,20,17.70
2016,06,29,17,21,17.70
2016,06,29,17,22,17.70
2016,06,29,17,23,17.60
2016,06,29,17,24,17.60
2016,06,29,17,25,17.60
2016,06,29,17,26,17.60
2016,06,29,17,27,17.60
2016,06,29,17,28,17.60
2016,06,29,17,29,17.60
2016,06,29,17,30,17.60
2016,06,29,17,31,17.60
2016,06,29,17,32,17.60
2016,06,29,17,33,17.70
2016,06,29,17,34,17.70
2016,06,29,17,35,17.70
2016,06,29,17,36,17.80
2016,06,29,17,37,17.80
2016,06,29,17,38,17.90
2016,06,29,17,39,17.90
2016,06,29,17,40,17.90
2016,06,29,17,41,17.90
2016,06,29,17,42,17.90
2016,06,29,17,43,17.90
2016,06,29,17,44,17.90
2016,06,29,17,45,17.90
2016,06,29,17,46,18.10
2016,06,29,17,47,18.10
2016,06,29,17,48,18.10
2016,06,29,17,49,18.10
2016,06,29,17,50,18.10
2016,06,29,17,51,18.10
2016,06,29,17,52,18.10
2016,06,29,17,53,18.10
2016,06,29,17,54,18.10
2016,06,29,17,55,18.10
2016,06,29,17,56,17.90
2016,06,29,17,57,17.90
2016,06,29,17,58,17.90
2016,06,29,17,59,18.10
2016,06,29,18,00,17.90
2016,06,29,18,01,17.90
2016,06,29,18,02,17.90
2016,06,29,18,03,17.90
2016,06,29,18,04,17.90
2016,06,29,18,05,17.90
2016,06,29,18,06,17.90
2016,06,29,18,07,17.90
2016,06,29,18,08,17.90
2016,06,29,18,09,17.90
2016,06,29,18,10,17.90
2016,06,29,18,11,17.90
2016,06,29,18,12,17.90
2016,06,29,18,13,18.10
2016,06,29,18,14,18.10
2016,06,29,18,15,18.10
2016,06,29,18,16,18.20
2016,06,29,18,17,18.20
2016,06,29,18,18,18.20
2016,06,29,18,19,18.20
2016,06,29,18,20,18.20
2016,06,29,18,21,18.20
2016,06,29,18,42,19.10
2016,06,29,18,43,19.10
2016,06,29,18,44,19.20
2016,06,29,18,46,19.40
2016,06,29,18,47,19.40
2016,06,29,18,48,19.50
2016,06,29,18,49,19.50
2016,06,29,18,51,19.60
2016,06,29,18,52,19.50
2016,06,29,18,53,19.50
2016,06,29,18,54,19.50
2016,06,29,18,56,19.50
2016,06,29,18,57,19.50
2016,06,29,18,58,19.50
2016,06,29,18,59,19.60
2016,06,29,19,00,19.50
2016,06,29,19,01,19.50
2016,06,29,19,02,19.50
2016,06,29,19,03,19.50
2016,06,29,19,04,19.50
2016,06,29,19,06,19.40
2016,06,29,19,07,19.30
2016,06,29,19,08,19.30
2016,06,29,19,09,19.30
2016,06,29,19,10,19.30
2016,06,29,19,11,19.20
2016,06,29,19,12,19.20
2016,06,29,19,13,19.20
2016,06,29,19,14,19.10
2016,06,29,19,15,19.10
2016,06,29,19,16,19.20
2016,06,29,19,17,19.20
2016,06,29,19,18,19.20
2016,06,29,19,19,19.30
2016,06,29,19,20,19.30
2016,06,29,19,21,19.30
2016,06,29,19,22,19.30
2016,06,29,19,23,19.30
2016,06,29,19,24,19.40
2016,06,29,19,25,19.30
2016,06,29,19,26,19.30
2016,06,29,19,27,19.30
2016,06,29,19,28,19.30
2016,06,29,19,29,19.30
2016,06,29,19,30,19.40
2016,06,29,19,31,19.40
2016,06,29,19,42,19.70
2016,06,29,19,43,19.80
2016,06,29,19,44,19.80
2016,06,29,19,46,19.70
2016,06,29,19,47,19.60
2016,06,29,19,48,19.50
2016,06,29,19,51,19.60
2016,06,29,19,52,19.50
2016,06,29,19,53,19.60
2016,06,29,19,54,19.60
2016,06,29,19,56,19.60
2016,06,29,19,57,19.70
2016,06,29,19,58,19.70
2016,06,29,19,59,19.70
2016,06,29,20,01,19.70
2016,06,29,20,02,19.70
2016,06,29,20,03,19.70
2016,06,29,20,04,19.60
2016,06,29,20,06,19.50
2016,06,29,20,07,19.50
2016,06,29,20,08,19.50
2016,06,29,20,09,19.50
2016,06,29,20,10,19.50
2016,06,29,20,11,19.60
2016,06,29,20,12,19.60
2016,06,29,20,13,19.70
2016,06,29,20,14,19.70
2016,06,29,20,15,19.80
2016,06,29,20,16,19.80
2016,06,29,20,17,19.80
2016,06,29,20,18,19.80
2016,06,29,20,19,19.80
2016,06,29,20,20,19.80
2016,06,29,20,21,19.90
2016,06,29,20,22,19.90
2016,06,29,20,23,19.90
2016,06,29,20,24,19.90
2016,06,29,20,25,19.90
2016,06,29,20,26,19.90
2016,06,29,20,27,19.90
2016,06,29,20,28,19.90
2016,06,29,20,29,19.90
2016,06,29,20,30,19.90
2016,06,29,20,31,19.90
2016,06,29,20,32,19.90
2016,06,29,20,33,19.90
2016,06,29,20,34,19.90
2016,06,29,20,35,19.90
2016,06,29,20,36,19.80
2016,06,29,20,37,19.70
2016,06,29,20,38,19.60
2016,06,29,20,39,19.60
2016,06,29,20,40,19.50
2016,06,29,20,41,19.50
2016,06,29,21,42,19.80
2016,06,29,21,43,19.70
2016,06,29,21,44,19.70
2016,06,29,21,46,19.70
2016,06,29,21,47,19.70
2016,06,29,21,48,19.70
2016,06,29,21,49,19.80
2016,06,29,21,51,19.90
2016,06,29,21,52,19.90
2016,06,29,21,53,20.10
2016,06,29,21,54,20.10
2016,06,29,21,56,20.10
2016,06,29,21,57,20.10
2016,06,29,21,58,20.10
2016,06,29,21,59,19.90
2016,06,29,22,01,19.80
2016,06,29,22,02,19.70
2016,06,29,22,03,19.70
2016,06,29,22,04,19.70
2016,06,29,22,06,19.70
2016,06,29,22,07,19.60
2016,06,29,22,08,19.50
2016,06,29,22,09,19.50
2016,06,29,22,10,19.40
2016,06,29,22,11,19.40
2016,06,29,22,12,19.40
2016,06,29,22,13,19.40
2016,06,29,22,14,19.40
2016,06,29,22,15,19.40
2016,06,29,22,16,19.50
2016,06,29,22,17,19.50
2016,06,29,22,18,19.60
2016,06,29,22,19,19.60
2016,06,29,22,20,19.70
2016,06,29,22,21,19.70
2016,06,29,22,22,19.80
2016,06,29,22,23,19.90
2016,06,29,22,24,19.90
2016,06,29,22,25,20.10
2016,06,29,22,26,20.20
2016,06,29,22,27,20.20
2016,06,29,22,28,20.30
2016,06,29,22,29,20.30
2016,06,29,22,30,20.40
2016,06,29,22,31,20.50
2016,06,29,22,32,20.60
2016,06,29,22,33,20.60
2016,06,29,22,34,20.70
2016,06,29,22,35,20.80
2016,06,29,22,36,20.90
2016,06,29,22,37,21.00
2016,06,29,22,38,21.10
2016,06,29,22,39,21.10
2016,06,29,22,40,21.20
2016,06,29,22,41,21.20